Location: Newark
(25.6108°S, 54.5803°W)
Time: 16:37:22
(UTC+00:00)

Vanguard 1 - All Passes

Search period start: 21 October 2020 00:00
Search period end: 31 October 2020 00:00
Orbit: 650 x 3832 km, 34.2° (Epoch: 20 October)

Date Brightness Start Highest point End Pass type
(mag) Time Alt. Az. Time Alt. Az. Time Alt. Az.
21 Oct - 04:04:32 10° N 04:07:41 19° NE 04:11:09 10° E night (unlit)
21 Oct - 06:22:31 10° WNW 06:27:20 70° SSW 06:34:56 10° ESE visible
21 Oct - 08:42:41 10° WSW 08:49:19 49° S 09:01:21 10° ESE daylight
21 Oct - 11:02:42 10° WSW 11:12:44 76° SSE 11:31:44 10° ENE daylight
21 Oct - 13:23:39 10° WSW 13:37:28 59° NNW 13:59:26 10° NE daylight
21 Oct - 15:49:44 10° W 16:03:36 24° NW 16:20:00 10° N daylight
22 Oct - 04:24:20 10° NNW 04:28:19 33° NE 04:32:57 10° E visible
22 Oct - 06:43:30 10° W 06:48:25 54° SSW 06:56:17 10° ESE visible
22 Oct - 09:03:41 10° WSW 09:10:41 51° S 09:23:34 10° E daylight
22 Oct - 11:23:34 10° WSW 11:34:02 87° SSE 11:53:42 10° ENE daylight
22 Oct - 13:45:02 10° WSW 13:58:55 48° NW 14:19:58 10° NNE daylight
22 Oct - 16:14:16 10° WNW 16:25:19 17° NW 16:37:40 10° N daylight
23 Oct - 04:44:41 10° NW 04:49:00 56° NNE 04:54:18 10° ESE visible
23 Oct - 07:04:35 10° W 07:09:37 46° S 07:17:45 10° ESE visible
23 Oct - 09:24:36 10° WSW 09:31:59 56° SSE 09:45:50 10° E daylight
23 Oct - 11:44:30 10° WSW 11:55:20 80° NNW 12:15:21 10° NE daylight
23 Oct - 14:06:46 10° W 14:20:25 38° NW 14:40:03 10° NNE daylight
23 Oct - 16:43:58 10° NW 16:47:16 10° NW 16:50:40 10° NNW daylight
24 Oct - 02:48:35 10° NNE 02:50:09 11° NE 02:51:40 10° NE night (unlit)
24 Oct - 05:05:24 10° WNW 05:09:48 90° NNE 05:15:29 10° ESE visible
24 Oct - 07:25:40 10° WSW 07:30:53 42° S 07:39:24 10° ESE visible
24 Oct - 09:45:28 10° WSW 09:53:14 64° SSE 10:08:04 10° E daylight
24 Oct - 12:05:30 10° WSW 12:16:37 67° NNW 12:36:39 10° NE daylight
24 Oct - 14:29:00 10° W 14:41:59 29° NW 14:59:34 10° NNE daylight
25 Oct - 03:07:22 10° NNW 03:10:57 21° NNE 03:14:21 10° E night (unlit)
25 Oct - 05:26:20 10° W 05:30:44 62° SSW 05:36:35 10° ESE visible
25 Oct - 07:46:42 10° WSW 07:52:09 42° S 08:01:14 10° ESE visible
25 Oct - 10:06:17 10° WSW 10:14:25 75° SSE 10:30:10 10° ENE daylight
25 Oct - 12:26:39 10° WSW 12:37:59 54° NNW 12:57:33 10° NE daylight
25 Oct - 14:52:07 10° WNW 15:03:41 21° NW 15:18:18 10° N daylight
26 Oct - 03:27:23 10° NW 03:31:44 36° NNE 03:35:54 10° E night (unlit)
26 Oct - 05:47:25 10° W 05:51:47 46° SSW 05:57:43 10° ESE visible
26 Oct - 08:07:39 10° WSW 08:13:23 45° SSE 08:23:13 10° E visible
26 Oct - 10:27:06 10° WSW 10:35:35 89° SSE 10:52:02 10° ENE daylight
26 Oct - 12:48:01 10° W 12:59:25 43° NNW 13:18:02 10° NNE daylight
26 Oct - 15:17:01 10° WNW 15:25:33 15° NW 15:35:28 10° N daylight
27 Oct - 03:47:54 10° NW 03:52:31 62° NNE 03:57:05 10° ESE night (unlit)
27 Oct - 06:08:34 10° WSW 06:12:55 39° S 06:18:58 10° ESE visible
27 Oct - 08:28:31 10° WSW 08:34:34 51° SSE 08:45:18 10° E visible
27 Oct - 10:47:59 10° WSW 10:56:45 76° NNW 11:13:36 10° NE daylight
27 Oct - 13:09:45 10° W 13:20:55 33° NNW 13:38:02 10° NNE daylight
28 Oct - 01:49:53 10° N 01:53:18 16° NNE 01:56:13 10° ENE night (unlit)
28 Oct - 04:08:45 10° WNW 04:13:21 83° SSW 04:18:05 10° ESE visible
28 Oct - 06:29:41 10° WSW 06:34:06 36° S 06:40:25 10° ESE visible
28 Oct - 08:49:19 10° WSW 08:55:41 61° SSE 09:07:20 10° E daylight
28 Oct - 11:08:57 10° WSW 11:17:58 61° NNW 11:34:48 10° NE daylight
28 Oct - 13:32:05 10° W 13:42:33 25° NNW 13:57:23 10° NNE daylight
29 Oct - 02:09:28 10° NNW 02:14:16 26° NNE 02:18:06 10° E night (unlit)
29 Oct - 04:29:49 10° W 04:34:15 55° SSW 04:39:02 10° ESE visible
29 Oct - 06:50:44 10° WSW 06:55:18 36° S 07:02:02 10° ESE visible
29 Oct - 09:10:06 10° WSW 09:16:44 75° SSE 09:29:15 10° ENE daylight
29 Oct - 11:30:06 10° W 11:39:16 48° NNW 11:55:36 10° NE daylight
29 Oct - 13:55:29 10° WNW 14:04:19 18° NNW 14:15:44 10° N daylight
30 Oct - 02:29:46 10° NW 02:35:11 43° NNE 02:39:25 10° E night (unlit)
30 Oct - 04:51:02 10° W 04:55:16 40° SSW 05:00:00 10° ESE visible
30 Oct - 07:11:40 10° WSW 07:16:27 39° SSE 07:23:48 10° E visible
30 Oct - 09:30:53 10° WSW 09:37:47 88° NNW 09:50:56 10° ENE daylight
30 Oct - 11:51:30 10° W 12:00:39 37° NNW 12:15:58 10° NNE daylight
30 Oct - 14:21:47 10° NW 14:26:19 11° NNW 14:31:21 10° NNW daylight
